Weather History for KSSC - June, 2013

Change the Weather History Date:

Tuesday, June 4, 2013

  Actual Average Record
Temperature  
Mean Temperature 77 °F -  
Max Temperature 86 °F 82 °F 95 °F (1998)
Min Temperature 68 °F 63 °F 57 °F (1997)
Cooling Degree Days 12    
Growing Degree Days 27 (Base 50)    
Moisture  
Dew Point 68 °F    
Average Humidity 70    
Maximum Humidity 94    
Minimum Humidity 53    
Precipitation  
Precipitation 0.04 in - - ()
Sea Level Pressure  
Sea Level Pressure 30.00 in    
Wind  
Wind Speed 5 mph (ESE)    
Max Wind Speed 13 mph    
Max Gust Speed -    
Visibility 10 miles    
Events Rain , Thunderstorm    
Averages and records for this station are not official NWS values.
T = Trace of Precipitation, MM = Missing Value Source: NWS Daily Summary

Daily Weather History Graph

Daily Weather History Graph

Search for Another Location

Airport or City:

Trip Planner

Search our weather history database for the weather conditions in past years. The results will help you decide how hot, cold, wet, or windy it might be!

Date:

Astronomy

Jun. 04, 2013 Rise Set
Actual Time 6:10 AM EDT 8:29 PM EDT
Civil Twilight 5:42 AM EDT 8:58 PM EDT
Nautical Twilight 5:06 AM EDT 9:34 PM EDT
Astronomical Twilight 4:28 AM EDT 10:12 PM EDT
Moon 3:31 AM EDT (6/4) 5:05 PM EDT (6/4)
Length of Visible Light 15h 16m
Length of Day
14h 18m
Waning Crescent, 14% of the Moon is Illuminated
Jun 4
Waning Crescent
Jun 8
New
Jun 16
First Quarter
Jun 23
Full
Jun 30
Last Quarter

Hourly Weather History & Observations

Time (EDT) Temp. Heat Index Dew Point Humidity Pressure Visibility Wind Dir Wind Speed Gust Speed Precip Events Conditions
12:58 AM 70.5 °F - 65.5 °F 84% 29.94 in 10.0 mi SSW 4.6 mph - N/A   Clear
1:58 AM 69.8 °F - 65.5 °F 86% 29.94 in 10.0 mi Calm Calm - N/A   Clear
2:55 AM 68.0 °F - 66.2 °F 94% 29.93 in 10.0 mi Calm Calm - N/A   Clear
4:58 AM 68.9 °F - 64.2 °F 85% 29.93 in 10.0 mi Calm Calm - N/A   Clear
6:58 AM 69.3 °F - 65.8 °F 89% 29.96 in 10.0 mi Calm Calm - N/A   Clear
7:58 AM 72.0 °F - 66.7 °F 84% 29.99 in 10.0 mi East 2.3 mph - N/A   Mostly Cloudy
8:58 AM 74.3 °F - 67.3 °F 79% 29.99 in 10.0 mi Variable 2.3 mph - N/A   Clear
9:58 AM 77.7 °F - 67.8 °F 71% 30.00 in 10.0 mi NNE 5.8 mph - N/A   Partly Cloudy
10:23 AM 80.6 °F 83.2 °F 68.0 °F 65% 30.01 in 10.0 mi ENE 6.9 mph - N/A   Scattered Clouds
10:33 AM 78.8 °F - 68.0 °F 69% 30.01 in 10.0 mi ENE 6.9 mph - N/A   Mostly Cloudy
10:38 AM 78.8 °F - 68.0 °F 69% 30.01 in 10.0 mi ENE 9.2 mph - N/A   Mostly Cloudy
10:43 AM 78.8 °F - 68.0 °F 69% 30.01 in 10.0 mi ENE 4.6 mph - N/A   Scattered Clouds
10:58 AM 81.0 °F 83.4 °F 67.5 °F 63% 30.01 in 10.0 mi East 6.9 mph - N/A   Scattered Clouds
11:58 AM 82.8 °F 85.3 °F 66.9 °F 59% 30.01 in 10.0 mi Variable 4.6 mph - N/A   Scattered Clouds
12:38 PM 84.2 °F 86.6 °F 66.2 °F 55% 30.00 in 10.0 mi East 8.1 mph - N/A   Mostly Cloudy
12:43 PM 86.0 °F 89.4 °F 68.0 °F 55% 30.01 in 10.0 mi ENE 8.1 mph - N/A   Mostly Cloudy
12:58 PM 84.0 °F 86.3 °F 66.2 °F 55% 30.00 in 10.0 mi East 5.8 mph - N/A   Mostly Cloudy
1:52 PM 84.2 °F 86.6 °F 66.2 °F 55% 29.99 in 10.0 mi ENE 6.9 mph - N/A   Light Drizzle
1:58 PM 83.7 °F 86.2 °F 66.9 °F 57% 29.99 in 10.0 mi East 6.9 mph - 0.00 in   Light Drizzle
2:00 PM 84.2 °F 86.6 °F 66.2 °F 55% 29.98 in 10.0 mi East 8.1 mph - N/A   Scattered Clouds
2:50 PM 82.4 °F 84.6 °F 66.2 °F 58% 29.98 in 10.0 mi East 6.9 mph - N/A Rain Light Rain
2:55 PM 82.4 °F 85.4 °F 68.0 °F 62% 29.98 in 5.0 mi East 6.9 mph - N/A Rain Light Rain
2:58 PM 82.6 °F 85.5 °F 68.0 °F 61% 29.98 in 3.0 mi East 5.8 mph - 0.04 in Rain Heavy Rain
3:03 PM 80.6 °F 83.9 °F 69.8 °F 70% 29.98 in 2.5 mi East 9.2 mph - N/A Rain Rain
3:08 PM 80.6 °F 83.9 °F 69.8 °F 70% 29.99 in 5.0 mi East 9.2 mph - N/A Rain Light Rain
3:19 PM 80.6 °F 83.9 °F 69.8 °F 70% 29.98 in 10.0 mi East 6.9 mph - N/A   Mostly Cloudy
3:21 PM 80.6 °F 83.9 °F 69.8 °F 70% 29.98 in 10.0 mi East 5.8 mph - N/A   Mostly Cloudy
3:58 PM 82.4 °F 85.4 °F 68.0 °F 62% 29.97 in 10.0 mi East 8.1 mph - N/A   Scattered Clouds
4:58 PM 85.3 °F 87.6 °F 66.4 °F 53% 29.97 in 10.0 mi ENE 8.1 mph - N/A   Clear
5:58 PM 86.0 °F 88.8 °F 66.9 °F 53% 29.97 in 10.0 mi SE 6.9 mph - N/A   Partly Cloudy
6:58 PM 83.5 °F 86.2 °F 67.5 °F 58% 29.98 in 10.0 mi SE 8.1 mph - N/A   Mostly Cloudy
7:58 PM 81.9 °F 84.8 °F 68.0 °F 63% 29.99 in 10.0 mi SE 5.8 mph - N/A   Partly Cloudy
8:23 PM 80.6 °F 83.2 °F 68.0 °F 65% 30.02 in 10.0 mi South 10.4 mph - N/A   Mostly Cloudy
8:33 PM 78.8 °F - 68.0 °F 69% 30.02 in 10.0 mi South 12.7 mph - N/A   Mostly Cloudy
8:58 PM 77.9 °F - 67.1 °F 69% 30.02 in 10.0 mi SSE 5.8 mph - N/A   Partly Cloudy
9:58 PM 75.7 °F - 67.8 °F 76% 30.03 in 10.0 mi South 3.5 mph - N/A   Scattered Clouds
10:23 PM 75.2 °F - 68.0 °F 78% 30.04 in 10.0 mi SE 2.3 mph - N/A   Mostly Cloudy
10:38 PM 75.2 °F - 68.0 °F 78% 30.04 in 10.0 mi South 5.8 mph - N/A   Overcast
10:58 PM 75.4 °F - 68.9 °F 80% 30.05 in 10.0 mi ESE 4.6 mph - N/A   Overcast
11:13 PM 75.2 °F - 68.0 °F 78% 30.04 in 10.0 mi SSE 3.5 mph - N/A   Overcast
11:15 PM 75.2 °F - 68.0 °F 78% 30.04 in 10.0 mi South 3.5 mph - N/A Thunderstorm Thunderstorm
11:30 PM 75.2 °F - 69.8 °F 83% 30.04 in 10.0 mi SE 5.8 mph - N/A Thunderstorm Overcast
11:35 PM 75.2 °F - 69.8 °F 83% 30.04 in 10.0 mi SE 8.1 mph - N/A Thunderstorm Mostly Cloudy
11:40 PM 75.2 °F - 69.8 °F 83% 30.04 in 10.0 mi SSE 5.8 mph - N/A Thunderstorm Mostly Cloudy
11:45 PM 75.2 °F - 69.8 °F 83% 30.04 in 10.0 mi SSE 4.6 mph - N/A Thunderstorm Scattered Clouds
11:58 PM 74.8 °F - 69.4 °F 83% 30.05 in 10.0 mi ESE 3.5 mph - N/A Thunderstorm Partly Cloudy